Location: ?????????
(54.7630°N, 39.4991°E)
Time: 19:27:52
(UTC+00:00)

Cosmos 2333 Rocket - Pass Details

Date: 14 April 2026
Orbit: 841 x 861 km, 70.8° (Epoch: 19 May)

Event Time Altitude Azimuth Distance (km) Brightness Sun altitude
Rises 22:43:33 0° 323° (NW) 3,410 5.8 -23.3°
Reaches altitude 10° 22:46:17 10° 334° (NNW) 2,473 5.1 -23.2°
Maximum altitude 22:51:19 32° 37° (NE) 1,426 4.0 -22.9°
Drops below altitude 10° 22:56:22 10° 99° (E) 2,471 4.8 -22.6°
Sets 22:59:05 0° 110° (ESE) 3,407 5.4 -22.4°
